Location: Jackson Park
(37.2862°N, 79.9123°W)
Time: 12:07:38
(UTC+00:00)

S-56A Canister/Altair - Pass Details

Date: 13 May 2026
Orbit: 632 x 2484 km, 38.9° (Epoch: 9 June)

Event Time Altitude Azimuth Distance (km) Brightness Sun altitude
Rises 05:35:11 0° 281° (W) 3,020 - -34.1°
Reaches altitude 10° 05:37:16 10° 282° (WNW) 2,197 - -34.1°
Maximum altitude 05:42:17 86° 12° (NNE) 873 - -34.0°
Exits shadow 05:48:43 13° 101° (E) 2,822 10.4 -33.8°
Drops below altitude 10° 05:49:25 10° 101° (ESE) 3,082 10.6 -33.8°
Sets 05:52:49 0° 102° (ESE) 4,346 11.4 -33.6°
